| time (UTC) | temp F | wind direction | speed knots | gust knots | rain 1hr in | rain 24hr in | rain mn in | humidity % | barometer mb |
| 20260508183036 | 43 | 320 | 2.6 | 7.0 | 0.00 | 0.54 | 0.01 | 89 | 1003.2 |
| 20260508181533 | 44 | 310 | 2.6 | 7.0 | 0.00 | 0.54 | 0.01 | 90 | 1002.9 |
| 20260508180032 | 44 | 5 | 0.9 | 3.5 | 0.00 | 0.54 | 0.01 | 90 | 1002.8 |
| 20260508174530 | 44 | 29 | 1.7 | 4.3 | 0.00 | 0.84 | 0.01 | 89 | 1002.8 |
| 20260508173030 | 44 | 28 | 1.7 | 4.3 | 0.00 | 0.84 | 0.01 | 89 | 1003.0 |
| 20260508171535 | 45 | 25 | 0.9 | 5.2 | 0.00 | 0.84 | 0.01 | 88 | 1003.1 |
| 20260508170029 | 45 | 319 | 2.6 | 5.2 | 0.00 | 0.84 | 0.01 | 88 | 1003.1 |
| 20260508164525 | 45 | 348 | 2.6 | 4.3 | 0.00 | 0.84 | 0.01 | 86 | 1003.0 |
| 20260508163027 | 46 | 354 | 1.7 | 5.2 | 0.00 | 0.84 | 0.01 | 85 | 1002.8 |
| 20260508161532 | 47 | 80 | 1.7 | 7.0 | 0.00 | 0.84 | 0.01 | 85 | 1002.8 |
| 20260508160026 | 47 | 341 | 0.9 | 4.3 | 0.00 | 0.84 | 0.01 | 85 | 1002.8 |
| 20260508154520 | 48 | 352 | 1.7 | 4.3 | 0.00 | 0.84 | 0.01 | 85 | 1002.9 |
| 20260508153020 | 47 | 348 | 0.9 | 6.1 | 0.00 | 0.84 | 0.01 | 86 | 1002.9 |
| 20260508151518 | 47 | 342 | 0.0 | 4.3 | 0.00 | 0.84 | 0.01 | 87 | 1003.1 |
| 20260508150022 | 47 | 352 | 0.9 | 3.5 | 0.00 | 0.84 | 0.01 | 87 | 1003.1 |
| 20260508144534 | 46 | 341 | 0.0 | 3.5 | 0.00 | 0.84 | 0.01 | 88 | 1003.2 |
| 20260508143026 | 48 | 114 | 0.0 | 2.6 | 0.00 | 0.84 | 0.01 | 90 | 1003.3 |
| 20260508141522 | 48 | 104 | 0.0 | 3.5 | 0.00 | 0.84 | 0.01 | 92 | 1003.6 |
| 20260508140013 | 47 | 114 | 0.9 | 2.6 | 0.00 | 0.84 | 0.01 | 93 | 1003.7 |
| 20260508134512 | 46 | 112 | 0.0 | 2.6 | 0.00 | 0.84 | 0.01 | 94 | 1003.6 |
| 20260508133013 | 46 | 112 | 0.9 | 3.5 | 0.00 | 0.84 | 0.01 | 94 | 1003.3 |
| 20260508131511 | 46 | 117 | 0.0 | 3.5 | 0.00 | 0.84 | 0.01 | 95 | 1003.2 |
| 20260508130013 | 45 | 123 | 1.7 | 5.2 | 0.00 | 0.84 | 0.01 | 95 | 1003.0 |
| 20260508124511 | 46 | 178 | 0.9 | 2.6 | 0.00 | 0.84 | 0.01 | 96 | 1003.1 |
| 20260508123009 | 46 | 177 | 0.9 | 2.6 | 0.00 | 0.84 | 0.01 | 96 | 1003.2 |
| 20260508121515 | 45 | 177 | 0.0 | 1.7 | 0.00 | 0.84 | 0.01 | 96 | 1003.2 |
| 20260508120009 | 44 | 177 | 0.0 | 1.7 | 0.00 | 0.84 | 0.01 | 96 | 1003.3 |
| 20260508114524 | 44 | 177 | 0.0 | 1.7 | 0.00 | 0.84 | 0.01 | 97 | 1003.3 |
| 20260508113006 | 43 | 177 | 0.0 | 1.7 | 0.00 | 0.84 | 0.01 | 96 | 1003.4 |
| 20260508111505 | 42 | 177 | 0.0 | 0.9 | 0.00 | 0.84 | 0.01 | 96 | 1003.7 |
| 20260508110103 | 43 | 177 | 0.9 | 2.6 | 0.00 | 0.84 | 0.01 | 96 | 1003.6 |
| 20260508104501 | 42 | 177 | 0.0 | 2.6 | 0.00 | 0.84 | 0.01 | 96 | 1003.5 |
| 20260508103107 | 43 | 177 | 0.0 | 3.5 | 0.00 | 0.84 | 0.01 | 97 | 1003.6 |
| 20260508101558 | 42 | 177 | 0.9 | 2.6 | 0.00 | 0.84 | 0.01 | 97 | 1003.3 |
| 20260508100057 | 42 | 176 | 0.0 | 5.2 | 0.00 | 0.84 | 0.01 | 97 | 1002.9 |
| 20260508094557 | 41 | 176 | 0.0 | 0.9 | 0.00 | 0.84 | 0.01 | 96 | 1002.8 |
| 20260508093057 | 42 | 176 | 0.0 | 5.2 | 0.00 | 0.84 | 0.01 | 96 | 1002.9 |
| 20260508091555 | 42 | 165 | 2.6 | 6.1 | 0.01 | 0.84 | 0.01 | 96 | 1003.0 |
| 20260508090059 | 42 | 174 | 2.6 | 6.1 | 0.01 | 0.84 | 0.01 | 96 | 1002.7 |
| 20260508084554 | 42 | 172 | 2.6 | 6.1 | 0.01 | 0.84 | 0.01 | 96 | 1002.5 |
| 20260508083054 | 42 | 163 | 1.7 | 6.1 | 0.01 | 0.84 | 0.01 | 96 | 1002.2 |
| 20260508081601 | 42 | 168 | 2.6 | 6.1 | 0.00 | 0.83 | 0.00 | 96 | 1002.4 |
| 20260508080052 | 43 | 155 | 1.7 | 7.0 | 0.00 | 0.83 | 0.00 | 96 | 1002.0 |
| 20260508074553 | 43 | 167 | 3.5 | 7.0 | 0.00 | 0.83 | 0.00 | 96 | 1002.1 |
| 20260508073055 | 43 | 243 | 0.0 | 3.5 | 0.00 | 0.83 | 0.00 | 96 | 1002.2 |
| 20260508071546 | 43 | 260 | 0.9 | 1.7 | 0.00 | 0.83 | 0.00 | 96 | 1002.4 |
| 20260508070045 | 43 | 260 | 0.0 | 0.9 | 0.00 | 0.83 | 0.00 | 96 | 1002.7 |
| 20260508064600 | 44 | 260 | 0.0 | 2.6 | 0.00 | 0.83 | 0.00 | 96 | 1002.4 |
| 20260508063042 | 43 | 260 | 0.0 | 2.6 | 0.00 | 0.83 | 0.00 | 96 | 1002.4 |
| 20260508061549 | 43 | 261 | 0.0 | 0.0 | 0.00 | 0.83 | 0.00 | 96 | 1002.5 |
| 20260508060040 | 42 | 261 | 0.0 | 0.0 | 0.00 | 0.83 | 0.00 | 96 | 1002.6 |
| 20260508054600 | 42 | 261 | 0.0 | 0.0 | 0.00 | 0.83 | 0.00 | 96 | 1002.9 |
| 20260508053036 | 42 | 261 | 0.0 | 0.0 | 0.00 | 0.83 | 0.00 | 96 | 1003.1 |
| 20260508051534 | 42 | 261 | 0.0 | 0.0 | 0.00 | 0.83 | 0.00 | 96 | 1002.9 |
| 20260508050037 | 42 | 261 | 0.0 | 1.7 | 0.00 | 0.83 | 0.00 | 95 | 1003.2 |
| 20260508044532 | 43 | 260 | 0.9 | 1.7 | 0.00 | 0.83 | 0.00 | 96 | 1003.0 |
| 20260508043042 | 42 | 260 | 0.0 | 1.7 | 0.00 | 0.83 | 0.00 | 96 | 1003.1 |
| 20260508041534 | 42 | 260 | 0.0 | 1.7 | 0.00 | 0.83 | 0.00 | 96 | 1003.2 |
| 20260508040029 | 42 | 261 | 0.0 | 4.3 | 0.00 | 0.83 | 0.00 | 95 | 1003.3 |
| 20260508034529 | 42 | 256 | 0.9 | 5.2 | 0.00 | 0.83 | 0.00 | 95 | 1003.4 |
| 20260508033024 | 43 | 288 | 4.3 | 7.8 | 0.00 | 0.83 | 0.00 | 93 | 1003.5 |
| 20260508031519 | 48 | 279 | 1.7 | 5.2 | 0.00 | 0.83 | 0.00 | 95 | 1003.2 |
| 20260508030016 | 48 | 167 | 0.0 | 1.7 | 0.01 | 0.83 | 0.00 | 95 | 1003.0 |
| 20260508024519 | 48 | 199 | 0.9 | 6.1 | 0.01 | 0.83 | 0.83 | 95 | 1002.6 |
| 20260508023015 | 48 | 300 | 1.7 | 3.5 | 0.02 | 0.83 | 0.83 | 95 | 1002.9 |
| 20260508021514 | 47 | 301 | 0.0 | 0.9 | 0.02 | 0.83 | 0.83 | 95 | 1002.8 |
| 20260508020014 | 47 | 301 | 0.0 | 0.0 | 0.02 | 0.83 | 0.83 | 95 | 1003.5 |
| 20260508014513 | 47 | 301 | 0.0 | 0.9 | 0.02 | 0.83 | 0.83 | 94 | 1003.6 |
| 20260508013012 | 48 | 301 | 0.0 | 0.9 | 0.02 | 0.82 | 0.82 | 95 | 1003.3 |
| 20260508011512 | 48 | 301 | 0.0 | 0.9 | 0.02 | 0.81 | 0.81 | 95 | 1003.2 |
| 20260508010021 | 47 | 301 | 0.0 | 0.9 | 0.04 | 0.81 | 0.81 | 94 | 1003.3 |
| 20260508004516 | 48 | 301 | 0.0 | 0.0 | 0.04 | 0.80 | 0.80 | 94 | 1003.4 |
| 20260508003009 | 47 | 301 | 0.0 | 1.7 | 0.04 | 0.80 | 0.80 | 94 | 1003.5 |
| 20260508001509 | 47 | 300 | 2.6 | 7.0 | 0.03 | 0.79 | 0.79 | 93 | 1003.2 |
| 20260508000122 | 48 | 300 | 2.6 | 7.0 | 0.02 | 0.77 | 0.77 | 93 | 1003.3 |
| 20260507234508 | 49 | 243 | 0.0 | 6.1 | 0.01 | 0.76 | 0.76 | 93 | 1002.8 |
| 20260507233003 | 48 | 260 | 2.6 | 7.8 | 0.00 | 0.76 | 0.76 | 92 | 1002.7 |
| 20260507231502 | 48 | 277 | 5.2 | 15.6 | 0.00 | 0.76 | 0.76 | 91 | 1002.5 |
| 20260507230104 | 49 | 60 | 10.4 | 21.7 | 0.00 | 0.76 | 0.76 | 85 | 1002.3 |
| 20260507224559 | 54 | 172 | 3.5 | 8.7 | 0.00 | 0.76 | 0.76 | 90 | 1001.6 |
| 20260507223103 | 54 | 178 | 3.5 | 10.4 | 0.00 | 0.76 | 0.76 | 90 | 1001.6 |
| 20260507221602 | 54 | 181 | 4.3 | 9.6 | 0.00 | 0.76 | 0.76 | 90 | 1001.6 |
| 20260507220057 | 54 | 172 | 3.5 | 10.4 | 0.00 | 0.76 | 0.76 | 90 | 1001.5 |
| 20260507214556 | 54 | 184 | 3.5 | 13.0 | 0.00 | 0.76 | 0.76 | 90 | 1001.5 |
| 20260507213056 | 54 | 183 | 3.5 | 10.4 | 0.00 | 0.76 | 0.76 | 91 | 1001.4 |
| 20260507211601 | 54 | 183 | 3.5 | 12.2 | 0.01 | 0.76 | 0.76 | 91 | 1001.4 |
| 20260507210054 | 54 | 161 | 5.2 | 12.2 | 0.02 | 0.76 | 0.76 | 92 | 1001.4 |
| 20260507204555 | 54 | 137 | 2.6 | 13.0 | 0.07 | 0.76 | 0.76 | 92 | 1001.5 |
| 20260507203053 | 54 | 103 | 6.1 | 13.9 | 0.12 | 0.76 | 0.76 | 92 | 1000.7 |
| 20260507201552 | 54 | 129 | 7.0 | 15.6 | 0.16 | 0.75 | 0.75 | 93 | 1000.4 |
| 20260507200047 | 54 | 167 | 5.2 | 17.4 | 0.17 | 0.73 | 0.73 | 92 | 1001.2 |
| 20260507194544 | 54 | 159 | 6.1 | 13.9 | 0.17 | 0.69 | 0.69 | 92 | 1002.0 |
| 20260507193046 | 54 | 101 | 4.3 | 10.4 | 0.18 | 0.64 | 0.64 | 92 | 1003.1 |
| 20260507191538 | 55 | 183 | 5.2 | 13.0 | 0.20 | 0.59 | 0.59 | 92 | 1003.2 |
| 20260507190038 | 55 | 160 | 4.3 | 12.2 | 0.24 | 0.55 | 0.55 | 91 | 1003.3 |
| 20260507184533 | 56 | 212 | 6.1 | 11.3 | 0.37 | 0.51 | 0.51 | 91 | 1003.5 |